Home > Weather > Okayama > Past weeks

Flag for Japan Past Weather in Okayama, Japan — Yesterday and Last 2 Weeks

Now
76 °F

Overcast.


Feels Like: 78 °F
Forecast: 67 / 87 °F
Wind: 7 mph from Southeast

Location: Takamatsu

Current Time: Aug 28, 2016 at 4:03:54 AM

Latest Report: Aug 28, 2016 at 3:00 AM


Visibility: 13 mi

Pressure: 29.62 "Hg

Humidity: 69%

Dew Point: 65 °F

Location of OkayamaLocation

Past Weather in Okayama — Graph

°F

Okayama Temperature Yesterday

Maximum temperature yesterday: 83 °F (at 4:00 PM)
Minimum temperature yesterday: 77 °F (at 12:00 AM)
Average temperature yesterday: 79 °F

High & Low Weather Summary for the Past Weeks

 TemperatureHumidityPressure
High98 °F (Aug 14, 3:00 PM)92% (Aug 17, 7:00 AM)29.77 "Hg (Aug 17, 7:00 AM)
Low77 °F (Aug 28, 2:00 AM)36% (Aug 23, 2:00 PM)29.47 "Hg (Aug 16, 4:00 PM)
Average86 °F66%29.66 "Hg
* Reported Aug 13 2:00 AM — Aug 28 2:00 AM, Okayama, Weather by CustomWeather, © 2016

Note: Actual official high and low records may vary slightly from our data, if they occured in-between our weather recording intervals... More about our weather records

Advertising

Okayama Weather History for the Previous 24 Hours

Scroll right to see more
 ConditionsComfort  
Time TempWeatherWind HumidityBarometerVisibility
2:00 AM
Sun, Aug 28
77 °FMild.7 mph66%29.64 "HgN/A
1:00 AM77 °FWarm.6 mph65%29.66 "HgN/A
12:00 AM77 °FWarm.6 mph65%29.68 "HgN/A
11:00 PM
Sat, Aug 27
78 °FWarm.8 mph65%29.68 "HgN/A
10:00 PM79 °FWarm.7 mph61%29.68 "HgN/A
9:00 PM80 °FOvercast.6 mph66%29.69 "Hg16 mi
8:00 PM80 °FWarm.7 mph69%29.69 "HgN/A
7:00 PM80 °FWarm.7 mph68%29.67 "HgN/A
6:00 PM81 °FOvercast.10 mph69%29.67 "Hg19 mi
5:00 PM82 °FWarm.7 mph63%29.66 "HgN/A
4:00 PM83 °FWarm.6 mph63%29.66 "HgN/A
3:00 PM82 °FOvercast.6 mph65%29.67 "Hg19 mi
2:00 PM82 °FWarm.5 mph65%29.69 "HgN/A
1:00 PM81 °FWarm.3 mph67%29.70 "HgN/A
12:00 PM80 °FOvercast.6 mph71%29.72 "Hg19 mi
11:00 AM81 °FWarm.5 mph72%29.73 "HgN/A
10:00 AM80 °FWarm.5 mph69%29.74 "HgN/A
9:00 AM79 °FOvercast.3 mph79%29.74 "Hg12 mi
8:00 AM78 °FWarm.3 mph79%29.74 "HgN/A
7:00 AM78 °FWarm.5 mph84%29.73 "HgN/A
6:00 AM77 °FOvercast.7 mph85%29.72 "Hg12 mi
5:00 AM78 °FWarm.5 mph83%29.71 "HgN/A
Weather by CustomWeather, © 2016

See weather overviewHow to use our weather pages